Time,TemperatureF,DewpointF,PressureIn,WindDirection,WindDirectionDegrees,WindSpeedMPH,WindSpeedGustMPH,Humidity,HourlyPrecipIn,Conditions,Clouds,dailyrainin,SoftwareType,DateUTC
2013-05-02 00:01:00,50.1,44.8,30.38,WNW,291,0.0,0.0,82,0.00,,---,0.00,VWS V14.00,2013-05-02 04:01:00,
2013-05-02 00:02:00,50.1,44.8,30.38,WNW,291,0.0,0.0,82,0.00,,---,0.00,VWS V14.00,2013-05-02 04:02:00,
2013-05-02 00:07:00,50.0,45.0,30.38,WNW,290,0.0,0.0,83,0.00,,---,0.00,VWS V14.00,2013-05-02 04:07:00,
2013-05-02 00:12:00,49.6,44.7,30.38,WNW,291,0.0,0.0,83,0.00,,---,0.00,VWS V14.00,2013-05-02 04:12:00,
2013-05-02 00:18:00,49.4,44.8,30.37,WNW,291,0.0,0.0,84,0.00,,---,0.00,VWS V14.00,2013-05-02 04:18:00,
2013-05-02 00:23:00,49.4,44.8,30.37,WNW,290,0.0,0.0,84,0.00,,---,0.00,VWS V14.00,2013-05-02 04:23:00,
2013-05-02 00:28:00,49.2,44.6,30.37,WNW,290,0.0,0.0,84,0.00,,---,0.00,VWS V14.00,2013-05-02 04:28:00,
2013-05-02 00:33:00,49.0,44.4,30.37,WNW,291,0.0,0.0,84,0.00,,---,0.00,VWS V14.00,2013-05-02 04:33:00,
2013-05-02 00:38:00,48.8,44.5,30.37,WNW,290,0.0,0.0,85,0.00,,---,0.00,VWS V14.00,2013-05-02 04:38:00,
2013-05-02 00:43:00,48.7,44.4,30.37,WNW,290,0.0,0.0,85,0.00,,---,0.00,VWS V14.00,2013-05-02 04:43:00,
2013-05-02 00:48:00,48.5,44.5,30.37,WNW,291,0.0,0.0,86,0.00,,---,0.00,VWS V14.00,2013-05-02 04:48:00,
2013-05-02 00:53:00,48.4,44.4,30.37,WNW,290,0.0,0.0,86,0.00,,---,0.00,VWS V14.00,2013-05-02 04:53:00,
2013-05-02 00:58:00,48.3,44.6,30.37,WNW,291,0.0,0.0,87,0.00,,---,0.00,VWS V14.00,2013-05-02 04:58:00,
2013-05-02 01:03:00,48.2,44.5,30.37,WNW,290,0.0,0.0,87,0.00,,---,0.00,VWS V14.00,2013-05-02 05:03:00,
2013-05-02 01:08:00,48.1,44.4,30.36,WNW,291,0.0,0.0,87,0.00,,---,0.00,VWS V14.00,2013-05-02 05:08:00,
2013-05-02 01:14:00,48.0,44.3,30.36,WNW,291,0.0,0.0,87,0.00,,---,0.00,VWS V14.00,2013-05-02 05:14:00,
2013-05-02 01:19:00,47.7,44.0,30.36,WNW,290,0.0,0.0,87,0.00,,---,0.00,VWS V14.00,2013-05-02 05:19:00,
2013-05-02 01:24:00,47.5,44.1,30.36,WNW,290,0.0,0.0,88,0.00,,---,0.00,VWS V14.00,2013-05-02 05:24:00,
2013-05-02 01:29:00,47.4,44.0,30.36,WNW,291,0.0,0.0,88,0.00,,---,0.00,VWS V14.00,2013-05-02 05:29:00,
2013-05-02 01:34:00,47.4,44.3,30.35,WNW,290,0.0,0.0,89,0.00,,---,0.00,VWS V14.00,2013-05-02 05:34:00,
2013-05-02 01:39:00,47.3,43.9,30.35,WNW,290,0.0,0.0,88,0.00,,---,0.00,VWS V14.00,2013-05-02 05:39:00,
2013-05-02 01:44:00,47.1,44.0,30.35,WNW,291,0.0,0.0,89,0.00,,---,0.00,VWS V14.00,2013-05-02 05:44:00,
2013-05-02 01:49:00,47.0,43.9,30.35,WNW,291,0.0,0.0,89,0.00,,---,0.00,VWS V14.00,2013-05-02 05:49:00,
2013-05-02 01:54:00,46.9,43.8,30.35,WNW,290,0.0,0.0,89,0.00,,---,0.00,VWS V14.00,2013-05-02 05:54:00,
2013-05-02 01:59:00,46.6,43.5,30.34,WNW,290,0.0,0.0,89,0.00,,---,0.00,VWS V14.00,2013-05-02 05:59:00,
2013-05-02 02:04:00,46.2,43.1,30.34,WNW,291,0.0,0.0,89,0.00,,---,0.00,VWS V14.00,2013-05-02 06:04:00,
2013-05-02 02:09:00,46.0,43.2,30.34,WNW,290,0.0,0.0,90,0.00,,---,0.00,VWS V14.00,2013-05-02 06:09:00,
2013-05-02 02:14:00,45.9,43.1,30.34,WNW,294,0.0,0.0,90,0.00,,---,0.00,VWS V14.00,2013-05-02 06:14:00,
2013-05-02 02:20:00,45.8,43.0,30.34,WNW,294,0.0,0.0,90,0.00,,---,0.00,VWS V14.00,2013-05-02 06:20:00,
2013-05-02 02:25:00,45.7,43.2,30.34,WNW,293,0.0,0.0,91,0.00,,---,0.00,VWS V14.00,2013-05-02 06:25:00,
2013-05-02 02:30:00,45.7,42.9,30.34,WNW,293,0.0,0.0,90,0.00,,---,0.00,VWS V14.00,2013-05-02 06:30:00,
2013-05-02 02:35:00,45.5,42.7,30.33,WNW,294,0.0,0.0,90,0.00,,---,0.00,VWS V14.00,2013-05-02 06:35:00,
2013-05-02 02:40:00,45.3,42.5,30.34,WNW,293,0.0,0.0,90,0.00,,---,0.00,VWS V14.00,2013-05-02 06:40:00,
2013-05-02 02:45:00,45.0,42.5,30.34,WNW,293,0.0,0.0,91,0.00,,---,0.00,VWS V14.00,2013-05-02 06:45:00,
2013-05-02 02:50:00,44.8,42.3,30.33,WNW,294,0.0,0.0,91,0.00,,---,0.00,VWS V14.00,2013-05-02 06:50:00,
2013-05-02 02:55:00,44.7,42.2,30.33,NW,310,0.0,0.0,91,0.00,,---,0.00,VWS V14.00,2013-05-02 06:55:00,
2013-05-02 03:00:00,44.6,42.4,30.33,NW,323,0.0,0.0,92,0.00,,---,0.00,VWS V14.00,2013-05-02 07:00:00,
2013-05-02 03:05:00,44.6,42.4,30.33,North,356,0.0,0.0,92,0.00,,---,0.00,VWS V14.00,2013-05-02 07:05:00,
2013-05-02 03:10:00,44.7,42.5,30.33,NNE,32,0.0,0.0,92,0.00,,---,0.00,VWS V14.00,2013-05-02 07:10:00,
2013-05-02 03:15:00,44.7,42.5,30.33,North,360,1.0,1.0,92,0.00,,---,0.00,VWS V14.00,2013-05-02 07:15:00,
2013-05-02 03:20:00,44.8,42.6,30.33,NNW,328,0.0,1.0,92,0.00,,---,0.00,VWS V14.00,2013-05-02 07:20:00,
2013-05-02 03:26:00,45.0,42.8,30.33,NW,326,0.0,0.0,92,0.00,,---,0.00,VWS V14.00,2013-05-02 07:26:00,
2013-05-02 03:31:00,44.9,42.7,30.33,North,357,0.0,0.0,92,0.00,,---,0.00,VWS V14.00,2013-05-02 07:31:00,
2013-05-02 03:36:00,44.8,42.6,30.33,North,357,0.0,0.0,92,0.00,,---,0.00,VWS V14.00,2013-05-02 07:36:00,
2013-05-02 03:41:00,44.7,42.5,30.33,North,357,0.0,0.0,92,0.00,,---,0.00,VWS V14.00,2013-05-02 07:41:00,
2013-05-02 03:46:00,44.5,42.3,30.33,North,357,0.0,0.0,92,0.00,,---,0.00,VWS V14.00,2013-05-02 07:46:00,
2013-05-02 03:51:00,44.4,42.2,30.33,NNE,20,0.0,0.0,92,0.00,,---,0.00,VWS V14.00,2013-05-02 07:51:00,
2013-05-02 03:56:00,44.5,42.3,30.33,North,10,0.0,0.0,92,0.00,,---,0.00,VWS V14.00,2013-05-02 07:56:00,
2013-05-02 04:01:00,44.5,42.3,30.33,North,10,0.0,0.0,92,0.00,,---,0.00,VWS V14.00,2013-05-02 08:01:00,
2013-05-02 04:06:00,44.4,42.2,30.33,North,9,0.0,0.0,92,0.00,,---,0.00,VWS V14.00,2013-05-02 08:06:00,
2013-05-02 04:11:00,44.2,42.0,30.33,North,9,0.0,0.0,92,0.00,,---,0.00,VWS V14.00,2013-05-02 08:11:00,
2013-05-02 04:16:00,44.0,41.8,30.33,North,9,0.0,0.0,92,0.00,,---,0.00,VWS V14.00,2013-05-02 08:16:00,
2013-05-02 04:21:00,43.7,41.5,30.33,North,9,0.0,0.0,92,0.00,,---,0.00,VWS V14.00,2013-05-02 08:21:00,
2013-05-02 04:27:00,43.6,41.7,30.33,North,9,0.0,0.0,93,0.00,,---,0.00,VWS V14.00,2013-05-02 08:27:00,
2013-05-02 04:32:00,43.4,41.5,30.33,North,9,0.0,0.0,93,0.00,,---,0.00,VWS V14.00,2013-05-02 08:32:00,
2013-05-02 04:37:00,43.2,41.3,30.33,North,9,0.0,0.0,93,0.00,,---,0.00,VWS V14.00,2013-05-02 08:37:00,
2013-05-02 04:42:00,43.0,41.1,30.33,North,9,0.0,0.0,93,0.00,,---,0.00,VWS V14.00,2013-05-02 08:42:00,
2013-05-02 04:47:00,42.9,41.0,30.33,North,9,0.0,0.0,93,0.00,,---,0.00,VWS V14.00,2013-05-02 08:47:00,
2013-05-02 04:52:00,42.8,40.9,30.33,North,9,0.0,0.0,93,0.00,,---,0.00,VWS V14.00,2013-05-02 08:52:00,
2013-05-02 04:57:00,42.9,41.3,30.33,North,9,0.0,0.0,94,0.00,,---,0.00,VWS V14.00,2013-05-02 08:57:00,
2013-05-02 05:02:00,42.9,41.3,30.33,North,1,0.0,0.0,94,0.00,,---,0.00,VWS V14.00,2013-05-02 09:02:00,
2013-05-02 05:07:00,43.0,41.4,30.33,North,1,0.0,0.0,94,0.00,,---,0.00,VWS V14.00,2013-05-02 09:07:00,
2013-05-02 05:12:00,42.9,41.3,30.33,North,1,0.0,0.0,94,0.00,,---,0.00,VWS V14.00,2013-05-02 09:12:00,
2013-05-02 05:17:00,42.8,41.2,30.33,North,1,0.0,0.0,94,0.00,,---,0.00,VWS V14.00,2013-05-02 09:17:00,
2013-05-02 05:22:00,42.7,41.1,30.33,North,1,0.0,0.0,94,0.00,,---,0.00,VWS V14.00,2013-05-02 09:22:00,
2013-05-02 05:28:00,42.6,41.0,30.33,North,1,0.0,0.0,94,0.00,,---,0.00,VWS V14.00,2013-05-02 09:28:00,
2013-05-02 05:33:00,42.4,40.8,30.33,North,1,0.0,0.0,94,0.00,,---,0.00,VWS V14.00,2013-05-02 09:33:00,
2013-05-02 05:38:00,42.5,40.9,30.33,North,1,0.0,0.0,94,0.00,,---,0.00,VWS V14.00,2013-05-02 09:38:00,
2013-05-02 05:43:00,42.6,41.0,30.33,North,1,0.0,0.0,94,0.00,,---,0.00,VWS V14.00,2013-05-02 09:43:00,
2013-05-02 05:48:00,42.5,40.9,30.33,North,1,0.0,0.0,94,0.00,,---,0.00,VWS V14.00,2013-05-02 09:48:00,
2013-05-02 05:53:00,42.4,40.8,30.33,North,1,0.0,0.0,94,0.00,,---,0.00,VWS V14.00,2013-05-02 09:53:00,
2013-05-02 05:58:00,42.4,40.8,30.33,North,1,0.0,0.0,94,0.00,,---,0.00,VWS V14.00,2013-05-02 09:58:00,
2013-05-02 06:03:00,42.2,40.6,30.33,North,1,0.0,0.0,94,0.00,,---,0.00,VWS V14.00,2013-05-02 10:03:00,
2013-05-02 06:08:00,42.2,40.6,30.34,North,1,0.0,0.0,94,0.00,,---,0.00,VWS V14.00,2013-05-02 10:08:00,
2013-05-02 06:13:00,42.4,41.1,30.34,North,1,0.0,0.0,95,0.00,,---,0.00,VWS V14.00,2013-05-02 10:13:00,
2013-05-02 06:18:00,42.7,41.1,30.34,North,1,0.0,0.0,94,0.00,,---,0.00,VWS V14.00,2013-05-02 10:18:00,
2013-05-02 06:23:00,43.1,41.5,30.33,North,1,0.0,0.0,94,0.00,,---,0.00,VWS V14.00,2013-05-02 10:23:00,
2013-05-02 06:28:00,43.7,42.1,30.33,North,1,0.0,0.0,94,0.00,,---,0.00,VWS V14.00,2013-05-02 10:28:00,
2013-05-02 06:34:00,44.4,42.8,30.34,North,1,0.0,0.0,94,0.00,,---,0.00,VWS V14.00,2013-05-02 10:34:00,
2013-05-02 06:39:00,45.0,43.4,30.34,North,1,0.0,0.0,94,0.00,,---,0.00,VWS V14.00,2013-05-02 10:39:00,
2013-05-02 06:44:00,45.5,43.6,30.34,North,1,0.0,0.0,93,0.00,,---,0.00,VWS V14.00,2013-05-02 10:44:00,
2013-05-02 06:49:00,46.0,43.8,30.34,North,1,0.0,0.0,92,0.00,,---,0.00,VWS V14.00,2013-05-02 10:49:00,
2013-05-02 06:54:00,46.6,44.4,30.34,North,1,0.0,0.0,92,0.00,,---,0.00,VWS V14.00,2013-05-02 10:54:00,
2013-05-02 06:59:00,47.3,44.5,30.34,North,1,0.0,0.0,90,0.00,,---,0.00,VWS V14.00,2013-05-02 10:59:00,
2013-05-02 07:04:00,47.7,44.6,30.35,North,1,0.0,0.0,89,0.00,,---,0.00,VWS V14.00,2013-05-02 11:04:00,
2013-05-02 07:09:00,48.5,45.1,30.35,North,1,0.0,0.0,88,0.00,,---,0.00,VWS V14.00,2013-05-02 11:09:00,
2013-05-02 07:14:00,49.3,45.9,30.35,North,1,0.0,0.0,88,0.00,,---,0.00,VWS V14.00,2013-05-02 11:14:00,
2013-05-02 07:19:00,50.3,46.0,30.36,North,1,0.0,0.0,85,0.00,,---,0.00,VWS V14.00,2013-05-02 11:19:00,
2013-05-02 07:24:00,51.2,46.5,30.36,North,3,0.0,0.0,84,0.00,,---,0.00,VWS V14.00,2013-05-02 11:24:00,
2013-05-02 07:29:00,51.9,46.3,30.36,North,1,0.0,0.0,81,0.00,,---,0.00,VWS V14.00,2013-05-02 11:29:00,
2013-05-02 07:35:00,52.2,45.9,30.36,North,3,0.0,0.0,79,0.00,,---,0.00,VWS V14.00,2013-05-02 11:35:00,
2013-05-02 07:40:00,52.4,45.8,30.36,North,4,0.0,0.0,78,0.00,,---,0.00,VWS V14.00,2013-05-02 11:40:00,
2013-05-02 07:45:00,52.6,46.0,30.36,North,4,0.0,0.0,78,0.00,,---,0.00,VWS V14.00,2013-05-02 11:45:00,
2013-05-02 07:50:00,52.9,46.6,30.36,NNE,31,0.0,0.0,79,0.00,,---,0.00,VWS V14.00,2013-05-02 11:50:00,
2013-05-02 07:55:00,53.7,46.3,30.36,NE,39,0.0,0.0,76,0.00,,---,0.00,VWS V14.00,2013-05-02 11:55:00,
2013-05-02 08:00:00,54.0,46.3,30.36,North,8,0.0,0.0,75,0.00,,---,0.00,VWS V14.00,2013-05-02 12:00:00,
2013-05-02 08:05:00,54.5,47.1,30.36,North,10,0.0,0.0,76,0.00,,---,0.00,VWS V14.00,2013-05-02 12:05:00,
2013-05-02 08:10:00,55.0,45.8,30.37,NNE,13,0.0,0.0,71,0.00,,---,0.00,VWS V14.00,2013-05-02 12:10:00,
2013-05-02 08:15:00,55.5,46.6,30.36,NE,53,0.0,0.0,72,0.00,,---,0.00,VWS V14.00,2013-05-02 12:15:00,
2013-05-02 08:20:00,56.5,46.5,30.37,NNW,330,2.0,2.0,69,0.00,,---,0.00,VWS V14.00,2013-05-02 12:20:00,
2013-05-02 08:25:00,55.9,45.9,30.37,NNE,24,1.0,4.0,69,0.00,,---,0.00,VWS V14.00,2013-05-02 12:25:00,
2013-05-02 08:30:00,55.7,46.1,30.37,NNW,331,1.0,4.0,70,0.00,,---,0.00,VWS V14.00,2013-05-02 12:30:00,
2013-05-02 08:36:00,56.4,46.4,30.37,East,98,2.0,4.0,69,0.00,,---,0.00,VWS V14.00,2013-05-02 12:36:00,
2013-05-02 08:41:00,56.9,46.5,30.37,SE,143,0.0,1.0,68,0.00,,---,0.00,VWS V14.00,2013-05-02 12:41:00,
2013-05-02 08:46:00,57.3,46.0,30.37,NW,316,0.0,3.0,66,0.00,,---,0.00,VWS V14.00,2013-05-02 12:46:00,
2013-05-02 08:51:00,58.4,46.7,30.37,NNE,13,2.0,2.0,65,0.00,,---,0.00,VWS V14.00,2013-05-02 12:51:00,
2013-05-02 08:56:00,58.8,46.2,30.37,ESE,111,1.0,4.0,63,0.00,,---,0.00,VWS V14.00,2013-05-02 12:56:00,
2013-05-02 09:01:00,59.8,45.9,30.37,NNE,27,3.0,3.0,60,0.00,,---,0.00,VWS V14.00,2013-05-02 13:01:00,
2013-05-02 09:06:00,60.0,45.2,30.37,ENE,58,1.0,2.0,58,0.00,,---,0.00,VWS V14.00,2013-05-02 13:06:00,
2013-05-02 09:11:00,60.0,44.3,30.37,NW,313,2.0,3.0,56,0.00,,---,0.00,VWS V14.00,2013-05-02 13:11:00,
2013-05-02 09:16:00,60.1,44.8,30.37,NE,53,3.0,5.0,57,0.00,,---,0.00,VWS V14.00,2013-05-02 13:16:00,
2013-05-02 09:21:00,60.6,44.4,30.37,ENE,77,3.0,4.0,55,0.00,,---,0.00,VWS V14.00,2013-05-02 13:21:00,
2013-05-02 09:26:00,60.5,42.8,30.36,West,277,0.0,1.0,52,0.00,,---,0.00,VWS V14.00,2013-05-02 13:26:00,
2013-05-02 09:31:00,61.4,43.6,30.36,SE,124,2.0,3.0,52,0.00,,---,0.00,VWS V14.00,2013-05-02 13:31:00,
2013-05-02 09:37:00,62.3,42.9,30.36,SW,219,1.0,3.0,49,0.00,,---,0.00,VWS V14.00,2013-05-02 13:37:00,
2013-05-02 09:42:00,63.2,43.7,30.36,NNW,346,0.0,2.0,49,0.00,,---,0.00,VWS V14.00,2013-05-02 13:42:00,
2013-05-02 09:47:00,64.1,41.2,30.36,NE,36,2.0,5.0,43,0.00,,---,0.00,VWS V14.00,2013-05-02 13:47:00,
2013-05-02 09:52:00,63.7,41.4,30.36,NE,39,2.0,4.0,44,0.00,,---,0.00,VWS V14.00,2013-05-02 13:52:00,
2013-05-02 09:57:00,63.3,40.5,30.36,NNE,13,3.0,5.0,43,0.00,,---,0.00,VWS V14.00,2013-05-02 13:57:00,
2013-05-02 10:02:00,63.2,42.1,30.36,East,87,2.0,5.0,46,0.00,,---,0.00,VWS V14.00,2013-05-02 14:02:00,
2013-05-02 10:07:00,63.1,40.9,30.36,ENE,67,4.0,6.0,44,0.00,,---,0.00,VWS V14.00,2013-05-02 14:07:00,
2013-05-02 10:12:00,62.9,41.8,30.36,NNE,15,3.0,4.0,46,0.00,,---,0.00,VWS V14.00,2013-05-02 14:12:00,
2013-05-02 10:17:00,64.3,41.9,30.36,East,87,0.0,3.0,44,0.00,,---,0.00,VWS V14.00,2013-05-02 14:17:00,
2013-05-02 10:22:00,64.5,41.5,30.36,West,264,1.0,4.0,43,0.00,,---,0.00,VWS V14.00,2013-05-02 14:22:00,
2013-05-02 10:27:00,65.2,42.2,30.36,ENE,65,7.0,7.0,43,0.00,,---,0.00,VWS V14.00,2013-05-02 14:27:00,
2013-05-02 10:32:00,64.2,41.3,30.36,SSE,153,2.0,7.0,43,0.00,,---,0.00,VWS V14.00,2013-05-02 14:32:00,
2013-05-02 10:37:00,65.4,41.1,30.36,WNW,294,2.0,6.0,41,0.00,,---,0.00,VWS V14.00,2013-05-02 14:37:00,
2013-05-02 10:43:00,65.8,40.8,30.36,ESE,119,2.0,5.0,40,0.00,,---,0.00,VWS V14.00,2013-05-02 14:43:00,
2013-05-02 10:48:00,65.6,41.3,30.36,SSE,154,5.0,6.0,41,0.00,,---,0.00,VWS V14.00,2013-05-02 14:48:00,
2013-05-02 10:53:00,66.0,41.0,30.36,SE,131,3.0,7.0,40,0.00,,---,0.00,VWS V14.00,2013-05-02 14:53:00,
2013-05-02 10:58:00,66.0,41.7,30.36,SSW,201,2.0,6.0,41,0.00,,---,0.00,VWS V14.00,2013-05-02 14:58:00,
2013-05-02 11:03:00,67.3,42.2,30.36,ESE,115,1.0,4.0,40,0.00,,---,0.00,VWS V14.00,2013-05-02 15:03:00,
2013-05-02 11:08:00,67.4,42.3,30.36,WSW,257,2.0,7.0,40,0.00,,---,0.00,VWS V14.00,2013-05-02 15:08:00,
2013-05-02 11:13:00,67.2,42.1,30.36,North,1,2.0,7.0,40,0.00,,---,0.00,VWS V14.00,2013-05-02 15:13:00,
2013-05-02 11:18:00,67.9,42.7,30.35,NE,56,1.0,8.0,40,0.00,,---,0.00,VWS V14.00,2013-05-02 15:18:00,
2013-05-02 11:23:00,68.9,43.0,30.35,NNW,338,3.0,4.0,39,0.00,,---,0.00,VWS V14.00,2013-05-02 15:23:00,
2013-05-02 11:28:00,67.7,41.9,30.35,North,10,4.0,6.0,39,0.00,,---,0.00,VWS V14.00,2013-05-02 15:28:00,
2013-05-02 11:33:00,68.0,42.8,30.35,SE,146,2.0,5.0,40,0.00,,---,0.00,VWS V14.00,2013-05-02 15:33:00,
2013-05-02 11:38:00,69.3,42.6,30.35,NW,318,2.0,4.0,38,0.00,,---,0.00,VWS V14.00,2013-05-02 15:38:00,
2013-05-02 11:43:00,69.8,43.1,30.35,NE,53,3.0,4.0,38,0.00,,---,0.00,VWS V14.00,2013-05-02 15:43:00,
2013-05-02 11:48:00,69.4,41.3,30.35,SE,130,4.0,6.0,36,0.00,,---,0.00,VWS V14.00,2013-05-02 15:48:00,
2013-05-02 11:53:00,69.1,41.0,30.34,SSE,167,3.0,5.0,36,0.00,,---,0.00,VWS V14.00,2013-05-02 15:53:00,
2013-05-02 11:58:00,69.3,41.2,30.34,East,100,7.0,9.0,36,0.00,,---,0.00,VWS V14.00,2013-05-02 15:58:00,
2013-05-02 12:03:00,68.8,41.5,30.34,NE,42,3.0,8.0,37,0.00,,---,0.00,VWS V14.00,2013-05-02 16:03:00,
2013-05-02 12:08:00,68.8,41.5,30.34,WSW,248,1.0,5.0,37,0.00,,---,0.00,VWS V14.00,2013-05-02 16:08:00,
2013-05-02 12:13:00,69.8,41.7,30.34,NNW,333,2.0,6.0,36,0.00,,---,0.00,VWS V14.00,2013-05-02 16:13:00,
2013-05-02 12:18:00,70.1,41.9,30.33,SSE,158,5.0,5.0,36,0.00,,---,0.00,VWS V14.00,2013-05-02 16:18:00,
2013-05-02 12:23:00,70.5,41.6,30.33,NW,316,2.0,8.0,35,0.00,,---,0.00,VWS V14.00,2013-05-02 16:23:00,
2013-05-02 12:28:00,71.2,41.4,30.33,SW,218,4.0,9.0,34,0.00,,---,0.00,VWS V14.00,2013-05-02 16:28:00,
2013-05-02 12:33:00,71.5,41.7,30.33,SSE,165,0.0,5.0,34,0.00,,---,0.00,VWS V14.00,2013-05-02 16:33:00,
2013-05-02 12:38:00,71.5,42.4,30.32,ESE,123,4.0,8.0,35,0.00,,---,0.00,VWS V14.00,2013-05-02 16:38:00,
2013-05-02 12:43:00,71.3,41.5,30.32,ENE,69,5.0,6.0,34,0.00,,---,0.00,VWS V14.00,2013-05-02 16:43:00,
2013-05-02 12:48:00,70.3,41.4,30.32,NNE,15,2.0,8.0,35,0.00,,---,0.00,VWS V14.00,2013-05-02 16:48:00,
2013-05-02 12:53:00,70.4,40.7,30.32,NE,37,3.0,6.0,34,0.00,,---,0.00,VWS V14.00,2013-05-02 16:53:00,
2013-05-02 12:58:00,70.9,41.2,30.32,NNE,27,4.0,6.0,34,0.00,,---,0.00,VWS V14.00,2013-05-02 16:58:00,
2013-05-02 13:03:00,72.0,41.3,30.31,ENE,73,3.0,5.0,33,0.00,,---,0.00,VWS V14.00,2013-05-02 17:03:00,
2013-05-02 13:09:00,73.2,40.8,30.31,South,178,4.0,8.0,31,0.00,,---,0.00,VWS V14.00,2013-05-02 17:09:00,
2013-05-02 13:14:00,73.2,39.9,30.31,SW,218,6.0,7.0,30,0.00,,---,0.00,VWS V14.00,2013-05-02 17:14:00,
2013-05-02 13:19:00,72.7,40.3,30.31,NW,320,3.0,4.0,31,0.00,,---,0.00,VWS V14.00,2013-05-02 17:19:00,
2013-05-02 13:24:00,72.9,40.5,30.31,South,187,1.0,2.0,31,0.00,,---,0.00,VWS V14.00,2013-05-02 17:24:00,
2013-05-02 13:29:00,72.9,39.7,30.31,East,80,7.0,8.0,30,0.00,,---,0.00,VWS V14.00,2013-05-02 17:29:00,
2013-05-02 13:34:00,72.9,39.7,30.31,NW,318,1.0,2.0,30,0.00,,---,0.00,VWS V14.00,2013-05-02 17:34:00,
2013-05-02 13:39:00,72.9,38.8,30.31,South,186,4.0,4.0,29,0.00,,---,0.00,VWS V14.00,2013-05-02 17:39:00,
2013-05-02 13:44:00,74.0,39.8,30.30,ENE,65,2.0,5.0,29,0.00,,---,0.00,VWS V14.00,2013-05-02 17:44:00,
2013-05-02 13:49:00,73.5,39.3,30.30,SE,146,4.0,7.0,29,0.00,,---,0.00,VWS V14.00,2013-05-02 17:49:00,
2013-05-02 13:54:00,73.9,38.8,30.30,SSW,202,5.0,10.0,28,0.00,,---,0.00,VWS V14.00,2013-05-02 17:54:00,
2013-05-02 13:59:00,73.6,38.5,30.30,WSW,240,10.0,13.0,28,0.00,,---,0.00,VWS V14.00,2013-05-02 17:59:00,
2013-05-02 14:05:00,73.4,39.2,30.30,ENE,69,2.0,5.0,29,0.00,,---,0.00,VWS V14.00,2013-05-02 18:05:00,
2013-05-02 14:10:00,73.7,38.6,30.29,ESE,104,5.0,8.0,28,0.00,,---,0.00,VWS V14.00,2013-05-02 18:10:00,
2013-05-02 14:15:00,73.6,38.5,30.29,SW,236,2.0,6.0,28,0.00,,---,0.00,VWS V14.00,2013-05-02 18:15:00,
2013-05-02 14:20:00,74.2,38.1,30.29,SSE,158,6.0,9.0,27,0.00,,---,0.00,VWS V14.00,2013-05-02 18:20:00,
2013-05-02 14:25:00,74.0,38.9,30.29,SSE,149,6.0,6.0,28,0.00,,---,0.00,VWS V14.00,2013-05-02 18:25:00,
2013-05-02 14:30:00,73.7,37.7,30.29,SE,143,5.0,9.0,27,0.00,,---,0.00,VWS V14.00,2013-05-02 18:30:00,
2013-05-02 14:35:00,74.3,39.1,30.29,NE,56,5.0,5.0,28,0.00,,---,0.00,VWS V14.00,2013-05-02 18:35:00,
2013-05-02 14:40:00,73.7,37.7,30.28,West,259,2.0,9.0,27,0.00,,---,0.00,VWS V14.00,2013-05-02 18:40:00,
2013-05-02 14:45:00,73.4,37.4,30.28,ESE,109,6.0,8.0,27,0.00,,---,0.00,VWS V14.00,2013-05-02 18:45:00,
2013-05-02 14:50:00,74.0,37.9,30.28,SE,142,3.0,8.0,27,0.00,,---,0.00,VWS V14.00,2013-05-02 18:50:00,
2013-05-02 14:55:00,74.4,38.3,30.28,SSW,211,3.0,8.0,27,0.00,,---,0.00,VWS V14.00,2013-05-02 18:55:00,
2013-05-02 15:01:00,74.5,37.4,30.28,ESE,122,5.0,10.0,26,0.00,,---,0.00,VWS V14.00,2013-05-02 19:01:00,
2013-05-02 15:06:00,74.3,38.2,30.28,NE,34,3.0,6.0,27,0.00,,---,0.00,VWS V14.00,2013-05-02 19:06:00,
2013-05-02 15:11:00,74.6,39.4,30.28,South,190,4.0,8.0,28,0.00,,---,0.00,VWS V14.00,2013-05-02 19:11:00,
2013-05-02 15:16:00,74.5,40.2,30.27,SSW,212,2.0,11.0,29,0.00,,---,0.00,VWS V14.00,2013-05-02 19:16:00,
2013-05-02 15:21:00,74.5,41.9,30.27,SSE,154,6.0,8.0,31,0.00,,---,0.00,VWS V14.00,2013-05-02 19:21:00,
2013-05-02 15:26:00,74.3,41.7,30.27,SSE,163,2.0,7.0,31,0.00,,---,0.00,VWS V14.00,2013-05-02 19:26:00,
2013-05-02 15:31:00,74.3,41.7,30.27,SSW,200,2.0,9.0,31,0.00,,---,0.00,VWS V14.00,2013-05-02 19:31:00,
2013-05-02 15:36:00,74.6,42.8,30.27,SW,218,4.0,5.0,32,0.00,,---,0.00,VWS V14.00,2013-05-02 19:36:00,
2013-05-02 15:41:00,74.5,41.9,30.27,West,278,2.0,7.0,31,0.00,,---,0.00,VWS V14.00,2013-05-02 19:41:00,
2013-05-02 15:46:00,74.4,43.5,30.26,East,97,4.0,5.0,33,0.00,,---,0.00,VWS V14.00,2013-05-02 19:46:00,
2013-05-02 15:51:00,74.4,42.7,30.26,SW,214,4.0,10.0,32,0.00,,---,0.00,VWS V14.00,2013-05-02 19:51:00,
2013-05-02 15:57:00,74.4,42.7,30.26,SW,221,8.0,10.0,32,0.00,,---,0.00,VWS V14.00,2013-05-02 19:57:00,
2013-05-02 16:02:00,74.8,43.8,30.26,ESE,114,4.0,9.0,33,0.00,,---,0.00,VWS V14.00,2013-05-02 20:02:00,
2013-05-02 16:07:00,75.0,43.2,30.26,ESE,102,5.0,9.0,32,0.00,,---,0.00,VWS V14.00,2013-05-02 20:07:00,
2013-05-02 16:12:00,74.1,43.2,30.26,SSE,162,6.0,9.0,33,0.00,,---,0.00,VWS V14.00,2013-05-02 20:12:00,
2013-05-02 16:17:00,74.3,43.4,30.25,SSW,207,4.0,10.0,33,0.00,,---,0.00,VWS V14.00,2013-05-02 20:17:00,
2013-05-02 16:22:00,74.0,43.9,30.25,WSW,240,3.0,9.0,34,0.00,,---,0.00,VWS V14.00,2013-05-02 20:22:00,
2013-05-02 16:27:00,74.1,44.0,30.25,SW,221,6.0,8.0,34,0.00,,---,0.00,VWS V14.00,2013-05-02 20:27:00,
2013-05-02 16:32:00,74.4,43.5,30.25,SSE,151,4.0,10.0,33,0.00,,---,0.00,VWS V14.00,2013-05-02 20:32:00,
2013-05-02 16:37:00,74.4,44.2,30.25,SSE,154,8.0,10.0,34,0.00,,---,0.00,VWS V14.00,2013-05-02 20:37:00,
2013-05-02 16:42:00,74.4,42.7,30.25,SE,146,7.0,10.0,32,0.00,,---,0.00,VWS V14.00,2013-05-02 20:42:00,
2013-05-02 16:47:00,74.3,44.1,30.25,SW,224,6.0,11.0,34,0.00,,---,0.00,VWS V14.00,2013-05-02 20:47:00,
2013-05-02 16:52:00,74.2,44.1,30.25,South,181,6.0,11.0,34,0.00,,---,0.00,VWS V14.00,2013-05-02 20:52:00,
2013-05-02 16:57:00,73.7,43.6,30.24,SE,140,6.0,10.0,34,0.00,,---,0.00,VWS V14.00,2013-05-02 20:57:00,
2013-05-02 17:03:00,73.5,44.2,30.24,SSW,210,8.0,8.0,35,0.00,,---,0.00,VWS V14.00,2013-05-02 21:03:00,
2013-05-02 17:08:00,73.7,44.4,30.24,South,177,7.0,11.0,35,0.00,,---,0.00,VWS V14.00,2013-05-02 21:08:00,
2013-05-02 17:13:00,74.0,43.9,30.24,South,169,5.0,8.0,34,0.00,,---,0.00,VWS V14.00,2013-05-02 21:13:00,
2013-05-02 17:18:00,73.6,43.5,30.24,South,170,5.0,9.0,34,0.00,,---,0.00,VWS V14.00,2013-05-02 21:18:00,
2013-05-02 17:23:00,73.1,43.8,30.24,SSE,162,4.0,12.0,35,0.00,,---,0.00,VWS V14.00,2013-05-02 21:23:00,
2013-05-02 17:28:00,73.3,44.0,30.24,South,181,4.0,9.0,35,0.00,,---,0.00,VWS V14.00,2013-05-02 21:28:00,
2013-05-02 17:33:00,73.1,43.8,30.24,SSE,159,4.0,10.0,35,0.00,,---,0.00,VWS V14.00,2013-05-02 21:33:00,
2013-05-02 17:38:00,72.5,43.3,30.24,South,177,7.0,12.0,35,0.00,,---,0.00,VWS V14.00,2013-05-02 21:38:00,
2013-05-02 17:43:00,72.2,43.8,30.24,South,186,6.0,12.0,36,0.00,,---,0.00,VWS V14.00,2013-05-02 21:43:00,
2013-05-02 17:48:00,71.7,43.3,30.24,SSW,198,9.0,11.0,36,0.00,,---,0.00,VWS V14.00,2013-05-02 21:48:00,
2013-05-02 17:53:00,71.6,44.0,30.24,SE,143,9.0,11.0,37,0.00,,---,0.00,VWS V14.00,2013-05-02 21:53:00,
2013-05-02 17:58:00,71.2,43.6,30.24,South,185,11.0,13.0,37,0.00,,---,0.00,VWS V14.00,2013-05-02 21:58:00,
2013-05-02 18:03:00,70.9,44.0,30.23,SSW,200,7.0,14.0,38,0.00,,---,0.00,VWS V14.00,2013-05-02 22:03:00,
2013-05-02 18:08:00,70.5,43.7,30.23,SSW,211,8.0,13.0,38,0.00,,---,0.00,VWS V14.00,2013-05-02 22:08:00,
2013-05-02 18:13:00,69.9,43.8,30.23,South,181,5.0,12.0,39,0.00,,---,0.00,VWS V14.00,2013-05-02 22:13:00,
2013-05-02 18:18:00,69.5,44.2,30.23,SE,135,4.0,13.0,40,0.00,,---,0.00,VWS V14.00,2013-05-02 22:18:00,
2013-05-02 18:23:00,69.2,43.9,30.23,South,191,5.0,12.0,40,0.00,,---,0.00,VWS V14.00,2013-05-02 22:23:00,
2013-05-02 18:28:00,69.1,43.8,30.23,WSW,257,5.0,10.0,40,0.00,,---,0.00,VWS V14.00,2013-05-02 22:28:00,
2013-05-02 18:33:00,69.0,44.3,30.23,SW,222,11.0,11.0,41,0.00,,---,0.00,VWS V14.00,2013-05-02 22:33:00,
2013-05-02 18:38:00,68.6,44.0,30.23,South,188,6.0,11.0,41,0.00,,---,0.00,VWS V14.00,2013-05-02 22:38:00,
2013-05-02 18:43:00,68.1,43.5,30.22,South,179,7.0,11.0,41,0.00,,---,0.00,VWS V14.00,2013-05-02 22:43:00,
2013-05-02 18:48:00,68.0,44.1,30.22,SW,222,3.0,10.0,42,0.00,,---,0.00,VWS V14.00,2013-05-02 22:48:00,
2013-05-02 18:53:00,67.9,42.7,30.22,WSW,256,3.0,6.0,40,0.00,,---,0.00,VWS V14.00,2013-05-02 22:53:00,
2013-05-02 18:58:00,67.6,43.1,30.22,SW,229,6.0,9.0,41,0.00,,---,0.00,VWS V14.00,2013-05-02 22:58:00,
2013-05-02 19:03:00,67.8,43.3,30.22,SSW,195,2.0,6.0,41,0.00,,---,0.00,VWS V14.00,2013-05-02 23:03:00,
2013-05-02 19:08:00,67.7,43.2,30.22,WSW,243,1.0,6.0,41,0.00,,---,0.00,VWS V14.00,2013-05-02 23:08:00,
2013-05-02 19:13:00,67.3,43.5,30.22,WSW,241,2.0,7.0,42,0.00,,---,0.00,VWS V14.00,2013-05-02 23:13:00,
2013-05-02 19:18:00,67.0,43.2,30.23,SSE,165,6.0,6.0,42,0.00,,---,0.00,VWS V14.00,2013-05-02 23:18:00,
2013-05-02 19:23:00,66.7,43.5,30.23,South,181,4.0,8.0,43,0.00,,---,0.00,VWS V14.00,2013-05-02 23:23:00,
2013-05-02 19:28:00,66.4,43.8,30.22,South,173,3.0,6.0,44,0.00,,---,0.00,VWS V14.00,2013-05-02 23:28:00,
2013-05-02 19:33:00,65.9,43.4,30.22,SSW,193,3.0,7.0,44,0.00,,---,0.00,VWS V14.00,2013-05-02 23:33:00,
2013-05-02 19:38:00,65.6,43.1,30.22,SSW,200,3.0,7.0,44,0.00,,---,0.00,VWS V14.00,2013-05-02 23:38:00,
2013-05-02 19:43:00,65.1,43.3,30.22,South,184,5.0,6.0,45,0.00,,---,0.00,VWS V14.00,2013-05-02 23:43:00,
2013-05-02 19:48:00,64.6,42.8,30.22,SSE,159,7.0,7.0,45,0.00,,---,0.00,VWS V14.00,2013-05-02 23:48:00,
2013-05-02 19:53:00,64.1,42.9,30.22,South,174,4.0,7.0,46,0.00,,---,0.00,VWS V14.00,2013-05-02 23:53:00,
2013-05-02 19:58:00,63.7,43.1,30.22,SSE,167,4.0,7.0,47,0.00,,---,0.00,VWS V14.00,2013-05-02 23:58:00,
2013-05-02 20:03:00,63.3,42.8,30.22,South,188,3.0,7.0,47,0.00,,---,0.00,VWS V14.00,2013-05-03 00:03:00,
2013-05-02 20:08:00,62.7,42.8,30.22,South,172,5.0,8.0,48,0.00,,---,0.00,VWS V14.00,2013-05-03 00:08:00,
2013-05-02 20:13:00,62.3,42.9,30.23,SSW,193,5.0,9.0,49,0.00,,---,0.00,VWS V14.00,2013-05-03 00:13:00,
2013-05-02 20:18:00,62.0,42.6,30.23,SSE,153,2.0,7.0,49,0.00,,---,0.00,VWS V14.00,2013-05-03 00:18:00,
2013-05-02 20:23:00,61.8,42.5,30.23,South,173,6.0,9.0,49,0.00,,---,0.00,VWS V14.00,2013-05-03 00:23:00,
2013-05-02 20:28:00,61.7,42.4,30.23,SSW,198,6.0,7.0,49,0.00,,---,0.00,VWS V14.00,2013-05-03 00:28:00,
2013-05-02 20:33:00,61.5,42.2,30.23,South,184,5.0,7.0,49,0.00,,---,0.00,VWS V14.00,2013-05-03 00:33:00,
2013-05-02 20:38:00,61.4,42.1,30.23,SSE,155,5.0,7.0,49,0.00,,---,0.00,VWS V14.00,2013-05-03 00:38:00,
2013-05-02 20:43:00,61.3,42.0,30.23,South,173,5.0,6.0,49,0.00,,---,0.00,VWS V14.00,2013-05-03 00:43:00,
2013-05-02 20:48:00,61.2,41.9,30.23,SSE,165,3.0,4.0,49,0.00,,---,0.00,VWS V14.00,2013-05-03 00:48:00,
2013-05-02 20:53:00,61.1,41.8,30.23,SSE,166,3.0,5.0,49,0.00,,---,0.00,VWS V14.00,2013-05-03 00:53:00,
2013-05-02 20:59:00,61.1,41.8,30.23,SSE,153,4.0,6.0,49,0.00,,---,0.00,VWS V14.00,2013-05-03 00:59:00,
2013-05-02 21:04:00,61.0,41.7,30.23,South,186,5.0,5.0,49,0.00,,---,0.00,VWS V14.00,2013-05-03 01:04:00,
2013-05-02 21:09:00,60.9,42.2,30.24,SSW,196,1.0,2.0,50,0.00,,---,0.00,VWS V14.00,2013-05-03 01:09:00,
2013-05-02 21:14:00,60.9,42.2,30.24,South,177,5.0,6.0,50,0.00,,---,0.00,VWS V14.00,2013-05-03 01:14:00,
2013-05-02 21:19:00,60.8,42.1,30.24,South,191,5.0,5.0,50,0.00,,---,0.00,VWS V14.00,2013-05-03 01:19:00,
2013-05-02 21:24:00,60.7,42.0,30.24,SSE,167,2.0,4.0,50,0.00,,---,0.00,VWS V14.00,2013-05-03 01:24:00,
2013-05-02 21:29:00,60.7,42.0,30.24,South,176,3.0,6.0,50,0.00,,---,0.00,VWS V14.00,2013-05-03 01:29:00,
2013-05-02 21:34:00,60.5,41.8,30.24,SSW,198,4.0,5.0,50,0.00,,---,0.00,VWS V14.00,2013-05-03 01:34:00,
2013-05-02 21:39:00,60.5,41.8,30.23,South,177,3.0,6.0,50,0.00,,---,0.00,VWS V14.00,2013-05-03 01:39:00,
2013-05-02 21:44:00,60.3,42.1,30.23,SSE,150,3.0,3.0,51,0.00,,---,0.00,VWS V14.00,2013-05-03 01:44:00,
2013-05-02 21:49:00,60.2,42.0,30.23,South,170,4.0,6.0,51,0.00,,---,0.00,VWS V14.00,2013-05-03 01:49:00,
2013-05-02 21:54:00,60.2,42.0,30.23,SSE,167,2.0,4.0,51,0.00,,---,0.00,VWS V14.00,2013-05-03 01:54:00,
2013-05-02 21:59:00,60.1,41.9,30.23,South,175,2.0,3.0,51,0.00,,---,0.00,VWS V14.00,2013-05-03 01:59:00,
2013-05-02 22:05:00,60.0,42.3,30.23,SSW,200,5.0,6.0,52,0.00,,---,0.00,VWS V14.00,2013-05-03 02:05:00,
2013-05-02 22:10:00,59.9,42.2,30.24,SSE,152,3.0,4.0,52,0.00,,---,0.00,VWS V14.00,2013-05-03 02:10:00,
2013-05-02 22:15:00,59.9,42.2,30.24,South,177,2.0,2.0,52,0.00,,---,0.00,VWS V14.00,2013-05-03 02:15:00,
2013-05-02 22:20:00,59.9,42.7,30.24,SE,141,2.0,3.0,53,0.00,,---,0.00,VWS V14.00,2013-05-03 02:20:00,
2013-05-02 22:25:00,59.7,42.1,30.24,South,186,1.0,3.0,52,0.00,,---,0.00,VWS V14.00,2013-05-03 02:25:00,
2013-05-02 22:30:00,59.7,42.1,30.24,SSE,160,3.0,4.0,52,0.00,,---,0.00,VWS V14.00,2013-05-03 02:30:00,
2013-05-02 22:35:00,59.7,42.6,30.24,SSW,198,4.0,5.0,53,0.00,,---,0.00,VWS V14.00,2013-05-03 02:35:00,
2013-05-02 22:40:00,59.7,42.6,30.24,SE,139,3.0,4.0,53,0.00,,---,0.00,VWS V14.00,2013-05-03 02:40:00,
2013-05-02 22:45:00,59.9,42.7,30.24,SSE,158,4.0,5.0,53,0.00,,---,0.00,VWS V14.00,2013-05-03 02:45:00,
2013-05-02 22:50:00,59.9,42.2,30.25,SSE,155,2.0,5.0,52,0.00,,---,0.00,VWS V14.00,2013-05-03 02:50:00,
2013-05-02 22:55:00,59.8,42.2,30.25,SSE,158,2.0,3.0,52,0.00,,---,0.00,VWS V14.00,2013-05-03 02:55:00,
2013-05-02 23:00:00,59.6,42.5,30.25,ESE,113,1.0,3.0,53,0.00,,---,0.00,VWS V14.00,2013-05-03 03:00:00,
2013-05-02 23:05:00,59.5,42.4,30.25,SE,129,1.0,3.0,53,0.00,,---,0.00,VWS V14.00,2013-05-03 03:05:00,
2013-05-02 23:10:00,59.3,42.7,30.25,SE,131,0.0,1.0,54,0.00,,---,0.00,VWS V14.00,2013-05-03 03:10:00,
2013-05-02 23:16:00,59.0,42.4,30.25,SE,132,0.0,0.0,54,0.00,,---,0.00,VWS V14.00,2013-05-03 03:16:00,
2013-05-02 23:21:00,58.8,42.7,30.25,East,85,0.0,0.0,55,0.00,,---,0.00,VWS V14.00,2013-05-03 03:21:00,
2013-05-02 23:26:00,58.5,42.9,30.26,ESE,111,2.0,3.0,56,0.00,,---,0.00,VWS V14.00,2013-05-03 03:26:00,
2013-05-02 23:31:00,58.5,42.9,30.26,SE,130,1.0,3.0,56,0.00,,---,0.00,VWS V14.00,2013-05-03 03:31:00,
2013-05-02 23:36:00,58.4,42.8,30.26,ESE,123,1.0,2.0,56,0.00,,---,0.00,VWS V14.00,2013-05-03 03:36:00,
2013-05-02 23:41:00,58.4,42.8,30.26,ESE,117,2.0,4.0,56,0.00,,---,0.00,VWS V14.00,2013-05-03 03:41:00,
2013-05-02 23:46:00,58.4,42.3,30.27,ESE,107,0.0,2.0,55,0.00,,---,0.00,VWS V14.00,2013-05-03 03:46:00,
2013-05-02 23:51:00,58.2,42.1,30.27,SE,132,0.0,0.0,55,0.00,,---,0.00,VWS V14.00,2013-05-03 03:51:00,
2013-05-02 23:56:00,57.9,42.3,30.27,East,92,0.0,0.0,56,0.00,,---,0.00,VWS V14.00,2013-05-03 03:56:00,